Tracking 28335 objects as of 4-Dec-2023
HD Live streaming from Space Station
objects crossing your sky now

STARLINK-4541

Track STARLINK-4541 now!
10-day predictions
STARLINK-4541 is classified as:


NORAD ID: 53427
Int'l Code: 2022-097AR
Perigee: 545.9 km
Apogee: 547.9 km
Inclination: 53.2 °
Period: 95.4 minutes
Semi major axis: 6917 km
RCS: Unknown
Launch date: August 10, 2022
Source: United States (US)
Launch site: AIR FORCE EASTERN TEST RANGE (AFETR)
Your satellite tracking list
Your tracking list is empty




NASA's NSSDC Master Catalog

Two Line Element Set (TLE):
1 53427U 22097AR  23337.85322466  .00000603  00000-0  55974-4 0  9998
2 53427  53.2165 225.9389 0001430  77.8989 282.2163 15.08827532 73341
Source of the keplerian elements: AFSPC